This demonstration page uses our WeatherBlox Daily Observations layout. Learn more.

40.92945, -100.16068

Hourly Observations for June 26, 2017

Temp ( °F °C ) Dew Point ( °F °C ) Humidity (%) Winds ( mph kmh ) Pressure ( in mb ) Visibility ( mi km ) Precip ( " mm )
12:15 am 00:15 Clear 58 14.5 52 11 80 80 SW 5 7 30.21 1023 10 16.0934 0 0
12:35 am 00:35 Clear 57 14.1 52 10.9 81 81 SSW 6 9 30.21 1023 10 16.0934 0 0
12:55 am 00:55 Clear 58 14.4 52 11.3 82 82 Calm 30.21 1023 10 16.0934 0 0
1:15 am 01:15 Clear 58 14.4 53 11.6 83 83 Calm 30.21 1023 10 16.0934 0 0
1:35 am 01:35 Mostly Cloudy 59 14.9 54 12.1 83 83 Calm 30.21 1023 10 16.0934 0 0
1:55 am 01:55 Cloudy 59 15 54 12.3 84 84 SW 5 7 30.21 1023 10 16.0934 0 0
2:15 am 02:15 Cloudy 60 15.3 55 12.7 85 85 SW 6 9 30.18 1022 10 16.0934 0 0
2:35 am 02:35 Mostly Cloudy 59 14.9 54 12.3 85 85 SW 7 11 30.21 1023 10 16.0934 0 0
2:55 am 02:55 Partly Cloudy 58 14.5 54 12.3 87 87 WSW 6 9 30.21 1023 10 16.0934 0 0
3:15 am 03:15 Clear 57 13.8 54 12 89 89 SW 8 13 30.21 1023 10 16.0934 0 0
3:35 am 03:35 Clear 57 13.8 54 12 89 89 SW 6 9 30.21 1023 10 16.0934 0 0
3:55 am 03:55 Partly Cloudy 57 13.8 54 12.3 91 91 SSW 9 15 30.21 1023 10 16.0934 0 0
4:15 am 04:15 Cloudy 59 15.1 56 13.6 91 91 SW 12 19 30.21 1023 10 16.0934 0 0
4:35 am 04:35 Cloudy 60 15.6 57 14 90 90 SW 14 22 30.18 1022 10 16.0934 0 0
4:55 am 04:55 Cloudy 60 15.7 57 14 90 90 WSW 8 13 30.18 1022 7 11.26538 0 0
5:15 am 05:15 Cloudy 61 16 58 14.2 89 89 WSW 8 13 30.15 1021 10 16.0934 0 0
5:35 am 05:35 Cloudy 61 16.1 57 14.1 88 88 WSW 8 13 30.15 1021 10 16.0934 0 0
5:55 am 05:55 Cloudy 61 16.3 57 14.1 87 87 SW 10 17 30.15 1021 10 16.0934 0 0
6:15 am 06:15 Cloudy 62 16.5 57 14.1 86 86 SW 10 17 30.15 1021 10 16.0934 0 0
6:35 am 06:35 Cloudy 62 16.5 57 14.1 86 86 WSW 10 17 30.15 1021 10 16.0934 0 0
6:55 am 06:55 Cloudy 62 16.5 57 14.1 86 86 W 7 11 30.15 1021 10 16.0934 0 0
7:15 am 07:15 Cloudy 62 16.7 57 14 84 84 W 6 9 30.18 1022 10 16.0934 0 0
7:35 am 07:35 Cloudy 63 17.3 58 14.2 82 82 W 6 9 30.18 1022 10 16.0934 0 0
7:55 am 07:55 Cloudy 63 17.3 58 14.4 83 83 W 6 9 30.18 1022 10 16.0934 0 0
8:15 am 08:15 Cloudy 64 17.6 58 14.4 82 82 WSW 5 7 30.15 1021 10 16.0934 0 0
8:35 am 08:35 Cloudy 65 18.3 58 14.5 79 79 WSW 7 11 30.12 1020 10 16.0934 0 0
8:55 am 08:55 Cloudy 65 18.1 58 14.5 80 80 WSW 5 7 30.15 1021 10 16.0934 0 0
9:15 am 09:15 Cloudy 65 18.3 58 14.5 79 79 SW 6 9 30.12 1020 10 16.0934 0 0
9:35 am 09:35 Cloudy 65 18.4 58 14.5 78 78 W 5 7 30.12 1020 10 16.0934 0 0
9:55 am 09:55 Cloudy 65 18.6 58 14.6 78 78 WSW 3 6 30.12 1020 10 16.0934 0 0
10:15 am 10:15 Cloudy 66 19 59 14.8 77 77 W 8 13 30.12 1020 10 16.0934 0 0
10:35 am 10:35 Mostly Cloudy 68 19.8 59 15 74 74 SW 5 7 30.12 1020 10 16.0934 0 0
10:55 am 10:55 Partly Cloudy 69 20.5 60 15.3 72 72 WSW 3 6 30.09 1019 10 16.0934 0 0
11:15 am 11:15 Partly Cloudy 69 20.5 59 15.2 72 72 WSW 3 6 30.09 1019 10 16.0934 0 0
11:35 am 11:35 Mostly Cloudy 69 20.7 60 15.3 71 71 SW 5 7 30.09 1019 10 16.0934 0 0
11:55 am 11:55 Cloudy 72 22 60 15.7 68 68 Calm 30.06 1018 10 16.0934 0 0
12:15 pm 12:15 Cloudy 70 21.2 60 15.5 70 70 N 3 6 30.09 1019 10 16.0934 0 0
12:35 pm 12:35 Mostly Cloudy 72 22.3 60 15.5 66 66 NE 7 11 30.06 1018 10 16.0934 0 0
12:55 pm 12:55 Mostly Cloudy 72 22 59 15.1 65 65 E 5 7 30.06 1018 10 16.0934 0 0
1:15 pm 13:15 Cloudy with Heavy Thunderstorms 71 21.6 59 15.2 67 67 NNW 12 19 30.12 1020 7 11.26538 0.01 0.254
1:35 pm 13:35 Cloudy with Light Rain 66 19 63 17.1 89 89 NE 6 9 30.09 1019 5 8.0467 0.17 4.318
1:55 pm 13:55 Cloudy 69 20.5 63 17.2 81 81 NE 8 13 30.09 1019 10 16.0934 0.17 4.318
2:15 pm 14:15 Cloudy 69 20.7 62 16.4 77 77 ENE 6 9 30.09 1019 10 16.0934 0 0
2:35 pm 14:35 Mostly Cloudy 72 22 62 16.8 72 72 ENE 8 13 30.03 1017 10 16.0934 0 0
2:55 pm 14:55 Partly Cloudy 74 23.1 61 16.1 65 65 ENE 7 11 30.03 1017 10 16.0934 0 0
3:15 pm 15:15 Partly Cloudy 74 23.5 60 15.3 60 60 E 8 13 30.03 1017 10 16.0934 0 0
3:35 pm 15:35 Partly Cloudy 76 24.7 60 15.8 58 58 E 6 9 30 1016 10 16.0934 0 0
3:55 pm 15:55 Partly Cloudy 78 25.6 58 14.3 50 50 ENE 12 19 29.97 1015 10 16.0934 0 0
4:15 pm 16:15 Partly Cloudy 78 25.7 57 13.7 48 48 E 12 19 29.97 1015 10 16.0934 0 0
4:35 pm 16:35 Partly Cloudy 79 25.9 55 13 45 45 E 16 26 29.97 1015 10 16.0934 0 0
4:55 pm 16:55 Partly Cloudy 78 25.8 53 11.7 41 41 E 10 17 29.97 1015 10 16.0934 0 0
5:15 pm 17:15 Sunny 79 26.3 51 10.6 37 37 ENE 12 19 29.97 1015 10 16.0934 0 0
5:35 pm 17:35 Sunny 80 26.5 50 10.2 36 36 ENE 10 17 29.97 1015 10 16.0934 0 0
5:55 pm 17:55 Sunny 79 26.3 49 9.4 34 34 ENE 13 20 29.97 1015 10 16.0934 0 0
6:15 pm 18:15 Sunny 80 26.4 49 9.3 34 34 ENE 12 19 29.97 1015 10 16.0934 0 0
6:35 pm 18:35 Sunny 78 25.7 47 8.4 33 33 E 12 19 29.97 1015 10 16.0934 0 0
6:55 pm 18:55 Sunny 78 25.5 49 9.4 36 36 E 15 24 29.97 1015 10 16.0934 0 0
7:15 pm 19:15 Sunny 78 25.3 49 9.2 36 36 E 13 20 29.97 1015 10 16.0934 0 0
7:35 pm 19:35 Sunny 76 24.7 49 9.4 38 38 E 10 17 29.97 1015 10 16.0934 0 0
7:55 pm 19:55 Sunny 75 24 50 9.9 41 41 ENE 12 19 30 1016 10 16.0934 0 0
8:15 pm 20:15 Sunny 74 23.3 51 10.4 44 44 E 7 11 30 1016 10 16.0934 0 0
8:35 pm 20:35 Sunny 72 22 52 10.9 49 49 ENE 8 13 30 1016 10 16.0934 0 0
8:55 pm 20:55 Sunny 69 20.5 52 11.3 56 56 ENE 8 13 30.03 1017 10 16.0934 0 0
9:15 pm 21:15 Clear 66 18.7 53 11.8 64 64 E 9 15 30.03 1017 10 16.0934 0 0
9:35 pm 21:35 Clear 65 18.4 53 11.4 64 64 E 8 13 30.03 1017 10 16.0934 0 0
9:55 pm 21:55 Clear 64 18 52 11.2 65 65 E 8 13 30.03 1017 10 16.0934 0 0
10:15 pm 22:15 Clear 64 17.7 52 11 65 65 E 8 13 30.03 1017 10 16.0934 0 0
10:35 pm 22:35 Clear 64 17.5 51 10.8 65 65 E 8 13 30.03 1017 10 16.0934 0 0
10:55 pm 22:55 Clear 64 17.5 51 10.8 65 65 E 9 15 30.03 1017 10 16.0934 0 0
11:15 pm 23:15 Clear 63 17 52 11 68 68 ESE 8 13 30.09 1019 10 16.0934 0 0
11:35 pm 23:35 Clear 62 16.8 52 11 69 69 E 10 17 30.06 1018 10 16.0934 0 0
11:55 pm 23:55 Clear 62 16.6 51 10.8 69 69 ESE 9 15 30.06 1018 10 16.0934 0 0

Powered by AerisWeather